Flag for Canada Weather past 2 weeks in Saskatoon, Saskatchewan, Canada

-9 °F

Passing clouds.

Feels Like: -24 °F
Forecast: -3 / 12 °F
Wind: 7 mph from Northwest

Location: Saskatoon Weather Station

Current Time: Nov 26, 2015 at 1:59:25 AM

Latest Report: Nov 26, 2015 at 1:00 AM

Visibility: 15 mi

Pressure: 30.49 "Hg

Humidity: 84%

Dew point: -13 °F

Location of SaskatoonLocation

Historic Weather in Saskatoon — Graph


Saskatoon temperature yesterday

Maximum temperature yesterday: 16 °F (at 12:00 AM)
Minimum temperature yesterday: 0 °F (at 8:00 AM)
Average temperature yesterday: 7 °F

Past Weeks' High & Low Weather Summary

High48 °F (Nov 13, 3:00 PM)100% (Nov 11, 4:00 AM)30.49 "Hg (Nov 11, 4:00 AM)
Low-6 °F (Nov 26, 12:00 AM)42% (Nov 12, 3:00 PM)28.96 "Hg (Nov 18, 2:00 AM)
Average26 °F81%29.89 "Hg
* Reported Midnight between Nov 10 and Nov 11 — Midnight between Nov 25 and Nov 26, Saskatoon, Weather by CustomWeather, © 2015

Note: Actual official high and low records may vary slightly from our data, if they occured in-between our weather recording intervals... More about our weather records


Saskatoon weather history for previous 24 hours

Time TempWeatherWind HumidityBarometerVisibility
12:00 AM
Thu, Nov 26
-6 °FPassing clouds.6 mph84%30.49 "Hg15 mi
11:00 PM
Wed, Nov 25
0 °FPassing clouds.7 mph84%30.46 "Hg15 mi
10:00 PM0 °FPassing clouds.7 mph84%30.44 "Hg15 mi
9:00 PM0 °FClear.8 mph84%30.44 "Hg15 mi
8:00 PM1 °FClear.10 mph85%30.43 "Hg15 mi
7:00 PM1 °FPassing clouds.9 mph85%30.43 "Hg15 mi
6:00 PM5 °FPassing clouds.10 mph78%30.42 "Hg15 mi
5:00 PM10 °FPartly sunny.9 mph72%30.42 "Hg15 mi
4:00 PM12 °FPartly sunny.12 mph73%30.41 "Hg15 mi
3:00 PM12 °FPartly sunny.15 mph73%30.41 "Hg15 mi
2:00 PM12 °FLight snow. Overcast.8 mph73%30.43 "Hg15 mi
1:00 PM9 °FOvercast.7 mph78%30.45 "Hg15 mi
12:00 PM7 °FOvercast.6 mph78%30.47 "Hg15 mi
11:00 AM3 °FMostly cloudy.5 mph85%30.48 "Hg15 mi
10:00 AM1 °FPartly sunny.6 mph78%30.47 "Hg15 mi
9:00 AM0 °FScattered clouds.9 mph84%30.46 "Hg15 mi
8:00 AM0 °FPartly cloudy.13 mph84%30.43 "Hg15 mi
7:00 AM5 °FOvercast.12 mph85%30.40 "Hg15 mi
6:00 AM10 °FOvercast.15 mph79%30.38 "Hg15 mi
5:00 AM12 °FOvercast.10 mph73%30.35 "Hg15 mi
4:46 AM12 °FOvercast.15 mph79%30.34 "Hg15 mi
4:00 AM12 °FLight snow. Overcast.13 mph79%30.34 "Hg15 mi
3:00 AM12 °FLight snow. Overcast.14 mph79%30.33 "Hg15 mi
2:00 AM14 °FLight snow. Overcast.18 mph79%30.32 "Hg15 mi
1:00 AM14 °FLight snow. Overcast.16 mph79%30.31 "Hg15 mi
Weather by CustomWeather, © 2015

See weather overviewHow to use our weather pages